This is the latest recevied weather packets stored in our database for station/object WB4YDL. If no packets are shown the sender has not sent any weather packets the latest 10 day(s).
| Time | Temp. | Humidity | Pressure | Rain* | Wind** | Luminosity | Snow |
|---|---|---|---|---|---|---|---|
| 1778002881 | 16.67° C | 99% | 1003.6 hPa | 0 mm | - | 153 W/m² | - |
| 1778002578 | 16.67° C | 99% | 1003.8 hPa | 1.27 mm | - | 128 W/m² | - |
| 1778002274 | 16.67° C | 99% | 1003.9 hPa | 1.27 mm | - | 158 W/m² | - |
| 1778001972 | 16.67° C | 99% | 1003.7 hPa | 0 mm | - | 175 W/m² | - |
| 1778001669 | 16.67° C | 99% | 1003.8 hPa | 0 mm | - | 91 W/m² | - |
| 1778001363 | 16.11° C | 99% | 1004 hPa | 0 mm | - | 121 W/m² | - |
| 1778001061 | 16.67° C | 99% | 1004.1 hPa | 0 mm | - | 40 W/m² | - |
| 1778000757 | 16.67° C | 99% | 1003.8 hPa | 1.78 mm | - | 106 W/m² | - |
| 1778000454 | 16.67° C | 99% | 1003.9 hPa | 6.1 mm | - | 81 W/m² | - |
| 1778000149 | 16.67° C | 99% | 1003.9 hPa | 4.32 mm | - | 63 W/m² | - |
| 1777999845 | 16.67° C | 99% | 1004 hPa | 0 mm | - | 55 W/m² | - |
| 1777999541 | 16.67° C | 99% | 1004.1 hPa | 0 mm | - | 96 W/m² | - |
| 1777999239 | 16.11° C | 99% | 1004 hPa | 0 mm | - | 98 W/m² | - |
| 1777998937 | 16.11° C | 99% | 1004.2 hPa | 0 mm | - | 80 W/m² | - |
| 1777998633 | 16.11° C | 99% | 1004.1 hPa | 0 mm | - | 68 W/m² | - |
| 1777998327 | 16.11° C | 99% | 1004.1 hPa | 0 mm | - | 66 W/m² | - |
| 1777998024 | 16.11° C | 99% | 1004.1 hPa | 0 mm | - | 68 W/m² | - |
| 1777997720 | 16.11° C | 99% | 1004.3 hPa | 0 mm | - | 64 W/m² | - |
| 1777997418 | 16.11° C | 99% | 1004.3 hPa | 0 mm | - | 71 W/m² | - |
| 1777997116 | 16.11° C | 99% | 1004.2 hPa | 0 mm | - | 63 W/m² | - |
| 1777996813 | 16.11° C | 99% | 1004.2 hPa | 0 mm | - | 42 W/m² | - |
| 1777996509 | 16.11° C | 99% | 1004.4 hPa | 0 mm | - | 44 W/m² | - |
| 1777996205 | 16.11° C | 99% | 1004.4 hPa | 0 mm | - | 64 W/m² | - |
| 1777995896 | 16.11° C | 99% | 1004.4 hPa | 0 mm | - | 74 W/m² | - |
| 1777995592 | 16.11° C | 99% | 1004.4 hPa | 0 mm | - | 79 W/m² | - |
* Rain latest hour (hover to see other rain measurements)
** Current wind speed in m/s (hover to see current wind gust speed)